Time,TemperatureF,DewpointF,PressureIn,WindDirection,WindDirectionDegrees,WindSpeedMPH,WindSpeedGustMPH,Humidity,HourlyPrecipIn,Conditions,Clouds,dailyrainin,SoftwareType,DateUTC
2013-05-17 00:00:00,66.9,51.7,28.97,South,183,0.0,0.0,58,0.00,,SKC,0.00,VWS V14.00,2013-05-17 04:00:00,
2013-05-17 00:05:00,67.1,51.8,28.97,South,184,0.0,0.0,58,0.00,,SKC,0.00,VWS V14.00,2013-05-17 04:05:00,
2013-05-17 00:10:00,66.7,51.5,28.97,South,183,0.0,0.0,58,0.00,,SKC,0.00,VWS V14.00,2013-05-17 04:10:00,
2013-05-17 00:11:00,66.7,51.5,28.97,South,183,0.0,0.0,58,0.00,,SKC,0.00,VWS V14.00,2013-05-17 04:11:00,
2013-05-17 00:16:00,66.6,51.8,28.97,South,183,0.0,0.0,59,0.00,,SKC,0.00,VWS V14.00,2013-05-17 04:16:00,
2013-05-17 00:21:00,66.4,51.6,28.97,South,183,0.0,0.0,59,0.00,,SKC,0.00,VWS V14.00,2013-05-17 04:21:00,
2013-05-17 00:26:00,66.4,51.6,28.97,South,183,0.0,0.0,59,0.00,,SKC,0.00,VWS V14.00,2013-05-17 04:26:00,
2013-05-17 00:30:00,66.2,51.9,28.97,South,183,0.0,0.0,60,0.00,,SKC,0.00,VWS V14.00,2013-05-17 04:30:00,
2013-05-17 00:36:00,66.0,52.2,28.97,South,183,0.0,0.0,61,0.00,,SKC,0.00,VWS V14.00,2013-05-17 04:36:00,
2013-05-17 00:41:00,65.8,52.0,28.97,South,183,0.0,0.0,61,0.00,,SKC,0.00,VWS V14.00,2013-05-17 04:41:00,
2013-05-17 00:46:00,65.7,51.9,28.97,South,183,0.0,0.0,61,0.00,,SKC,0.00,VWS V14.00,2013-05-17 04:46:00,
2013-05-17 00:51:00,65.7,51.9,28.97,South,183,0.0,0.0,61,0.00,,SKC,0.00,VWS V14.00,2013-05-17 04:51:00,
2013-05-17 00:56:00,65.5,52.1,28.97,South,183,0.0,0.0,62,0.00,,SKC,0.00,VWS V14.00,2013-05-17 04:56:00,
2013-05-17 01:01:00,65.5,52.1,28.97,South,183,0.0,0.0,62,0.00,,SKC,0.00,VWS V14.00,2013-05-17 05:01:00,
2013-05-17 01:06:00,65.3,52.0,28.97,South,183,0.0,0.0,62,0.00,,SKC,0.00,VWS V14.00,2013-05-17 05:06:00,
2013-05-17 01:11:00,65.1,51.8,28.97,South,183,0.0,0.0,62,0.00,,SKC,0.00,VWS V14.00,2013-05-17 05:11:00,
2013-05-17 01:16:00,64.9,52.1,28.97,South,183,0.0,0.0,63,0.00,,SKC,0.00,VWS V14.00,2013-05-17 05:16:00,
2013-05-17 01:21:00,64.8,51.9,28.97,South,183,0.0,0.0,63,0.00,,SKC,0.00,VWS V14.00,2013-05-17 05:21:00,
2013-05-17 01:26:00,64.6,51.7,28.97,South,183,0.0,0.0,63,0.00,,SKC,0.00,VWS V14.00,2013-05-17 05:26:00,
2013-05-17 01:31:00,64.6,52.1,28.97,South,183,0.0,0.0,64,0.00,,SKC,0.00,VWS V14.00,2013-05-17 05:31:00,
2013-05-17 01:36:00,64.6,52.1,28.97,South,183,0.0,0.0,64,0.00,,SKC,0.00,VWS V14.00,2013-05-17 05:36:00,
2013-05-17 01:41:00,64.6,52.1,28.97,South,183,0.0,0.0,64,0.00,,SKC,0.00,VWS V14.00,2013-05-17 05:41:00,
2013-05-17 01:46:00,64.6,52.1,28.97,South,183,0.0,0.0,64,0.00,,SKC,0.00,VWS V14.00,2013-05-17 05:46:00,
2013-05-17 01:51:00,64.6,52.1,28.97,South,183,0.0,0.0,64,0.00,,SKC,0.00,VWS V14.00,2013-05-17 05:51:00,
2013-05-17 01:56:00,64.6,52.1,28.97,South,183,0.0,0.0,64,0.00,,SKC,0.00,VWS V14.00,2013-05-17 05:56:00,
2013-05-17 02:01:00,64.4,52.4,28.97,South,183,0.0,0.0,65,0.00,,SKC,0.00,VWS V14.00,2013-05-17 06:01:00,
2013-05-17 02:06:00,64.6,52.6,28.97,South,183,0.0,0.0,65,0.00,,SKC,0.00,VWS V14.00,2013-05-17 06:06:00,
2013-05-17 02:11:00,64.6,52.6,28.97,South,183,0.0,0.0,65,0.00,,SKC,0.00,VWS V14.00,2013-05-17 06:11:00,
2013-05-17 02:16:00,64.6,52.6,28.97,South,183,0.0,0.0,65,0.00,,SKC,0.00,VWS V14.00,2013-05-17 06:16:00,
2013-05-17 02:21:00,64.4,52.4,28.97,South,183,0.0,0.0,65,0.00,,SKC,0.00,VWS V14.00,2013-05-17 06:21:00,
2013-05-17 02:26:00,64.2,52.6,28.97,South,183,0.0,0.0,66,0.00,,SKC,0.00,VWS V14.00,2013-05-17 06:26:00,
2013-05-17 02:31:00,64.0,52.5,28.97,South,183,0.0,0.0,66,0.00,,SKC,0.00,VWS V14.00,2013-05-17 06:31:00,
2013-05-17 02:36:00,63.9,52.3,28.97,South,183,0.0,0.0,66,0.00,,SKC,0.00,VWS V14.00,2013-05-17 06:36:00,
2013-05-17 02:41:00,63.7,52.5,28.97,South,183,0.0,0.0,67,0.00,,SKC,0.00,VWS V14.00,2013-05-17 06:41:00,
2013-05-17 02:46:00,63.7,52.5,28.97,South,183,0.0,0.0,67,0.00,,SKC,0.00,VWS V14.00,2013-05-17 06:46:00,
2013-05-17 02:51:00,63.7,52.5,28.97,South,183,0.0,0.0,67,0.00,,SKC,0.00,VWS V14.00,2013-05-17 06:51:00,
2013-05-17 02:56:00,63.5,52.4,28.97,South,183,0.0,0.0,67,0.00,,SKC,0.00,VWS V14.00,2013-05-17 06:56:00,
2013-05-17 03:01:00,63.5,52.4,28.97,South,183,0.0,0.0,67,0.00,,SKC,0.00,VWS V14.00,2013-05-17 07:01:00,
2013-05-17 03:06:00,63.5,52.8,28.97,South,183,0.0,0.0,68,0.00,,SKC,0.00,VWS V14.00,2013-05-17 07:06:00,
2013-05-17 03:11:00,63.5,52.8,28.97,South,183,0.0,0.0,68,0.00,,SKC,0.00,VWS V14.00,2013-05-17 07:11:00,
2013-05-17 03:16:00,63.5,52.8,28.97,South,183,0.0,0.0,68,0.00,,SKC,0.00,VWS V14.00,2013-05-17 07:16:00,
2013-05-17 03:21:00,63.5,52.8,29.00,South,183,0.0,0.0,68,0.00,,SKC,0.00,VWS V14.00,2013-05-17 07:21:00,
2013-05-17 03:26:00,63.5,52.8,29.00,South,183,0.0,0.0,68,0.00,,SKC,0.00,VWS V14.00,2013-05-17 07:26:00,
2013-05-17 03:31:00,63.7,52.9,29.00,South,183,0.0,0.0,68,0.00,,SKC,0.00,VWS V14.00,2013-05-17 07:31:00,
2013-05-17 03:36:00,63.7,52.9,29.00,South,183,0.0,0.0,68,0.00,,SKC,0.00,VWS V14.00,2013-05-17 07:36:00,
2013-05-17 03:41:00,63.7,52.9,29.00,South,183,0.0,0.0,68,0.00,,SKC,0.00,VWS V14.00,2013-05-17 07:41:00,
2013-05-17 03:46:00,63.7,52.9,29.00,South,183,0.0,0.0,68,0.00,,SKC,0.00,VWS V14.00,2013-05-17 07:46:00,
2013-05-17 03:51:00,63.7,52.9,29.00,South,183,0.0,0.0,68,0.00,,SKC,0.00,VWS V14.00,2013-05-17 07:51:00,
2013-05-17 03:56:00,63.5,52.8,29.00,South,183,0.0,0.0,68,0.00,,SKC,0.00,VWS V14.00,2013-05-17 07:56:00,
2013-05-17 04:01:00,63.5,52.8,29.00,South,183,0.0,0.0,68,0.00,,SKC,0.00,VWS V14.00,2013-05-17 08:01:00,
2013-05-17 04:06:00,63.3,52.6,29.00,South,183,0.0,0.0,68,0.00,,SKC,0.00,VWS V14.00,2013-05-17 08:06:00,
2013-05-17 04:11:00,63.3,52.6,29.00,South,183,0.0,0.0,68,0.00,,SKC,0.00,VWS V14.00,2013-05-17 08:11:00,
2013-05-17 04:16:00,63.1,52.8,29.00,South,183,0.0,0.0,69,0.00,,SKC,0.00,VWS V14.00,2013-05-17 08:16:00,
2013-05-17 04:21:00,63.1,52.8,29.00,South,183,0.0,0.0,69,0.00,,SKC,0.00,VWS V14.00,2013-05-17 08:21:00,
2013-05-17 04:26:00,63.1,52.8,29.00,South,183,0.0,0.0,69,0.00,,SKC,0.00,VWS V14.00,2013-05-17 08:26:00,
2013-05-17 04:31:00,63.1,53.2,29.00,South,183,0.0,0.0,70,0.00,,SKC,0.00,VWS V14.00,2013-05-17 08:31:00,
2013-05-17 04:36:00,63.3,53.4,29.00,South,183,0.0,0.0,70,0.00,,SKC,0.00,VWS V14.00,2013-05-17 08:36:00,
2013-05-17 04:41:00,63.3,53.4,29.00,South,183,0.0,0.0,70,0.00,,SKC,0.00,VWS V14.00,2013-05-17 08:41:00,
2013-05-17 04:46:00,63.3,53.4,29.00,South,183,0.0,0.0,70,0.00,,SKC,0.00,VWS V14.00,2013-05-17 08:46:00,
2013-05-17 04:51:00,63.3,53.4,29.00,South,183,0.0,0.0,70,0.00,,SKC,0.00,VWS V14.00,2013-05-17 08:51:00,
2013-05-17 04:56:00,63.3,53.4,29.00,South,183,0.0,0.0,70,0.00,,SKC,0.00,VWS V14.00,2013-05-17 08:56:00,
2013-05-17 05:01:00,63.3,53.4,29.00,South,183,0.0,0.0,70,0.00,,SKC,0.00,VWS V14.00,2013-05-17 09:01:00,
2013-05-17 05:06:00,63.3,53.4,29.00,South,183,0.0,0.0,70,0.00,,SKC,0.00,VWS V14.00,2013-05-17 09:06:00,
2013-05-17 05:11:00,63.5,53.5,29.00,South,184,0.0,0.0,70,0.00,,SKC,0.00,VWS V14.00,2013-05-17 09:11:00,
2013-05-17 05:16:00,63.5,53.5,29.00,South,183,0.0,0.0,70,0.00,,SKC,0.00,VWS V14.00,2013-05-17 09:16:00,
2013-05-17 05:21:00,63.5,53.5,29.00,South,183,0.0,0.0,70,0.00,,SKC,0.00,VWS V14.00,2013-05-17 09:21:00,
2013-05-17 05:26:00,63.5,53.9,29.00,South,183,0.0,0.0,71,0.00,,SKC,0.00,VWS V14.00,2013-05-17 09:26:00,
2013-05-17 05:31:00,63.5,53.9,29.00,South,183,0.0,0.0,71,0.00,,SKC,0.00,VWS V14.00,2013-05-17 09:31:00,
2013-05-17 05:36:00,63.3,53.8,29.00,South,183,0.0,0.0,71,0.00,,SKC,0.00,VWS V14.00,2013-05-17 09:36:00,
2013-05-17 05:41:00,63.3,53.8,29.00,South,183,0.0,0.0,71,0.00,,SKC,0.00,VWS V14.00,2013-05-17 09:41:00,
2013-05-17 05:46:00,63.3,53.8,29.00,South,183,0.0,0.0,71,0.00,,SKC,0.00,VWS V14.00,2013-05-17 09:46:00,
2013-05-17 05:51:00,63.3,53.8,29.00,South,183,0.0,0.0,71,0.00,,SKC,0.00,VWS V14.00,2013-05-17 09:51:00,
2013-05-17 05:56:00,63.3,53.8,29.00,South,183,0.0,0.0,71,0.00,,SKC,0.00,VWS V14.00,2013-05-17 09:56:00,
2013-05-17 06:02:00,63.3,53.8,29.00,South,183,0.0,0.0,71,0.00,,SKC,0.00,VWS V14.00,2013-05-17 10:02:00,
2013-05-17 06:07:00,63.3,54.2,29.00,South,183,0.0,0.0,72,0.00,,SKC,0.00,VWS V14.00,2013-05-17 10:07:00,
2013-05-17 06:12:00,63.3,54.2,29.00,South,183,0.0,0.0,72,0.00,,SKC,0.00,VWS V14.00,2013-05-17 10:12:00,
2013-05-17 06:17:00,63.3,54.2,29.00,South,183,0.0,0.0,72,0.00,,SKC,0.00,VWS V14.00,2013-05-17 10:17:00,
2013-05-17 06:22:00,63.3,54.2,29.00,South,183,0.0,0.0,72,0.00,,SKC,0.00,VWS V14.00,2013-05-17 10:22:00,
2013-05-17 06:27:00,63.3,54.2,29.00,South,183,0.0,0.0,72,0.00,,SKC,0.00,VWS V14.00,2013-05-17 10:27:00,
2013-05-17 06:32:00,63.3,54.2,29.00,South,183,0.0,0.0,72,0.00,,SKC,0.00,VWS V14.00,2013-05-17 10:32:00,
2013-05-17 06:37:00,63.1,54.0,29.00,South,183,0.0,0.0,72,0.00,,SKC,0.00,VWS V14.00,2013-05-17 10:37:00,
2013-05-17 06:42:00,63.1,54.0,29.00,South,183,0.0,0.0,72,0.00,,SKC,0.00,VWS V14.00,2013-05-17 10:42:00,
2013-05-17 06:47:00,63.3,54.2,29.00,South,183,0.0,0.0,72,0.00,,SKC,0.00,VWS V14.00,2013-05-17 10:47:00,
2013-05-17 06:52:00,63.3,54.2,29.03,South,183,0.0,0.0,72,0.00,,SKC,0.00,VWS V14.00,2013-05-17 10:52:00,
2013-05-17 06:57:00,63.5,54.3,29.03,South,183,0.0,0.0,72,0.00,,SKC,0.00,VWS V14.00,2013-05-17 10:57:00,
2013-05-17 07:02:00,63.5,54.3,29.03,South,183,0.0,0.0,72,0.00,,SKC,0.00,VWS V14.00,2013-05-17 11:02:00,
2013-05-17 07:07:00,63.7,54.5,29.03,South,183,0.0,0.0,72,0.00,,SKC,0.00,VWS V14.00,2013-05-17 11:07:00,
2013-05-17 07:12:00,63.7,54.5,29.03,South,183,0.0,0.0,72,0.00,,SKC,0.00,VWS V14.00,2013-05-17 11:12:00,
2013-05-17 07:17:00,63.7,54.5,29.03,South,183,0.0,0.0,72,0.00,,SKC,0.00,VWS V14.00,2013-05-17 11:17:00,
2013-05-17 07:22:00,63.7,54.5,29.03,South,183,0.0,0.0,72,0.00,,SKC,0.00,VWS V14.00,2013-05-17 11:22:00,
2013-05-17 07:27:00,63.9,54.7,29.03,South,183,0.0,0.0,72,0.00,,SKC,0.00,VWS V14.00,2013-05-17 11:27:00,
2013-05-17 07:32:00,63.9,55.0,29.03,South,183,0.0,0.0,73,0.00,,SKC,0.00,VWS V14.00,2013-05-17 11:32:00,
2013-05-17 07:37:00,64.2,55.4,29.03,South,183,0.0,0.0,73,0.00,,SKC,0.00,VWS V14.00,2013-05-17 11:37:00,
2013-05-17 07:42:00,64.4,55.2,29.03,South,183,0.0,0.0,72,0.00,,SKC,0.00,VWS V14.00,2013-05-17 11:42:00,
2013-05-17 07:47:00,64.6,55.7,29.03,South,183,0.0,0.0,73,0.00,,SKC,0.00,VWS V14.00,2013-05-17 11:47:00,
2013-05-17 07:52:00,64.8,55.9,29.03,South,183,0.0,0.0,73,0.00,,SKC,0.00,VWS V14.00,2013-05-17 11:52:00,
2013-05-17 07:57:00,64.9,56.1,29.03,South,183,0.0,0.0,73,0.00,,SKC,0.00,VWS V14.00,2013-05-17 11:57:00,
2013-05-17 08:02:00,65.1,56.3,29.03,South,183,0.0,0.0,73,0.00,,SKC,0.00,VWS V14.00,2013-05-17 12:02:00,
2013-05-17 08:07:00,65.3,56.4,29.03,South,183,0.0,0.0,73,0.00,,SKC,0.00,VWS V14.00,2013-05-17 12:07:00,
2013-05-17 08:12:00,65.7,56.8,29.03,South,183,0.0,0.0,73,0.00,,SKC,0.00,VWS V14.00,2013-05-17 12:12:00,
2013-05-17 08:17:00,65.8,57.0,29.03,South,183,0.0,0.0,73,0.00,,SKC,0.00,VWS V14.00,2013-05-17 12:17:00,
2013-05-17 08:22:00,66.2,57.3,29.03,South,183,0.0,0.0,73,0.00,,SKC,0.00,VWS V14.00,2013-05-17 12:22:00,
2013-05-17 08:27:00,66.6,57.7,29.03,South,183,0.0,0.0,73,0.00,,SKC,0.00,VWS V14.00,2013-05-17 12:27:00,
2013-05-17 08:32:00,66.9,58.0,29.03,South,183,0.0,0.0,73,0.00,,SKC,0.00,VWS V14.00,2013-05-17 12:32:00,
2013-05-17 08:37:00,67.1,58.2,29.03,South,183,0.0,0.0,73,0.00,,SKC,0.00,VWS V14.00,2013-05-17 12:37:00,
2013-05-17 08:42:00,67.3,58.3,29.03,South,183,0.0,0.0,73,0.00,,SKC,0.00,VWS V14.00,2013-05-17 12:42:00,
2013-05-17 08:47:00,67.6,58.7,29.03,South,183,0.0,0.0,73,0.00,,SKC,0.00,VWS V14.00,2013-05-17 12:47:00,
2013-05-17 08:52:00,67.8,58.5,29.03,South,183,0.0,0.0,72,0.00,,SKC,0.00,VWS V14.00,2013-05-17 12:52:00,
2013-05-17 08:57:00,68.2,58.8,29.03,South,183,0.0,0.0,72,0.00,,SKC,0.00,VWS V14.00,2013-05-17 12:57:00,
2013-05-17 09:02:00,68.7,59.3,29.03,South,183,0.0,0.0,72,0.00,,SKC,0.00,VWS V14.00,2013-05-17 13:02:00,
2013-05-17 09:07:00,69.1,59.7,29.03,South,183,0.0,0.0,72,0.00,,SKC,0.00,VWS V14.00,2013-05-17 13:07:00,
2013-05-17 09:12:00,69.3,59.9,29.03,South,183,0.0,0.0,72,0.00,,SKC,0.00,VWS V14.00,2013-05-17 13:12:00,
2013-05-17 09:17:00,69.8,60.0,29.03,South,183,0.0,0.0,71,0.00,,SKC,0.00,VWS V14.00,2013-05-17 13:17:00,
2013-05-17 09:22:00,70.2,60.3,29.03,SSE,148,0.0,0.0,71,0.00,,SKC,0.00,VWS V14.00,2013-05-17 13:22:00,
2013-05-17 09:27:00,70.5,60.7,29.03,SSE,148,0.0,0.0,71,0.00,,SKC,0.00,VWS V14.00,2013-05-17 13:27:00,
2013-05-17 09:32:00,70.9,60.6,29.03,SSW,202,0.0,0.0,70,0.00,,SKC,0.00,VWS V14.00,2013-05-17 13:32:00,
2013-05-17 09:37:00,71.2,61.0,29.06,SSW,202,0.0,0.0,70,0.00,,SKC,0.00,VWS V14.00,2013-05-17 13:37:00,
2013-05-17 09:42:00,71.6,61.3,29.06,SSW,202,0.0,0.0,70,0.00,,SKC,0.00,VWS V14.00,2013-05-17 13:42:00,
2013-05-17 09:47:00,72.0,61.2,29.06,North,4,0.0,0.0,69,0.00,,SKC,0.00,VWS V14.00,2013-05-17 13:47:00,
2013-05-17 09:52:00,72.7,61.9,29.06,North,353,0.0,0.0,69,0.00,,SKC,0.00,VWS V14.00,2013-05-17 13:52:00,
2013-05-17 09:57:00,73.2,62.0,29.06,North,353,0.0,0.0,68,0.00,,SKC,0.00,VWS V14.00,2013-05-17 13:57:00,
2013-05-17 10:02:00,73.6,62.4,29.06,NE,35,0.0,0.0,68,0.00,,SKC,0.00,VWS V14.00,2013-05-17 14:02:00,
2013-05-17 10:07:00,73.9,62.3,29.06,NE,35,0.0,0.0,67,0.00,,SKC,0.00,VWS V14.00,2013-05-17 14:07:00,
2013-05-17 10:12:00,74.3,62.2,29.06,NE,39,0.0,0.0,66,0.00,,SKC,0.00,VWS V14.00,2013-05-17 14:12:00,
2013-05-17 10:17:00,74.3,62.2,29.06,NE,43,0.0,0.0,66,0.00,,SKC,0.00,VWS V14.00,2013-05-17 14:17:00,
2013-05-17 10:22:00,74.3,61.8,29.06,NE,43,0.0,0.0,65,0.00,,SKC,0.00,VWS V14.00,2013-05-17 14:22:00,
2013-05-17 10:27:00,74.3,61.8,29.06,NE,43,0.0,0.0,65,0.00,,SKC,0.00,VWS V14.00,2013-05-17 14:27:00,
2013-05-17 10:32:00,74.5,62.0,29.06,NE,43,0.0,0.0,65,0.00,,SKC,0.00,VWS V14.00,2013-05-17 14:32:00,
2013-05-17 10:37:00,74.8,61.9,29.06,NE,43,0.0,0.0,64,0.00,,SKC,0.00,VWS V14.00,2013-05-17 14:37:00,
2013-05-17 10:42:00,75.2,61.8,29.06,NE,43,0.0,0.0,63,0.00,,SKC,0.00,VWS V14.00,2013-05-17 14:42:00,
2013-05-17 10:47:00,75.6,61.6,29.06,NNE,32,0.0,0.0,62,0.00,,SKC,0.00,VWS V14.00,2013-05-17 14:47:00,
2013-05-17 10:52:00,75.9,62.0,29.06,ENE,58,0.0,0.0,62,0.00,,SKC,0.00,VWS V14.00,2013-05-17 14:52:00,
2013-05-17 10:57:00,76.5,62.5,29.06,NE,50,0.0,0.0,62,0.00,,SKC,0.00,VWS V14.00,2013-05-17 14:57:00,
2013-05-17 11:02:00,76.6,61.2,29.06,NNE,30,0.0,0.0,59,0.00,,SKC,0.00,VWS V14.00,2013-05-17 15:02:00,
2013-05-17 11:07:00,76.8,60.9,29.03,NNE,30,0.0,0.0,58,0.00,,SKC,0.00,VWS V14.00,2013-05-17 15:07:00,
2013-05-17 11:12:00,77.2,60.8,29.03,NNE,30,0.0,0.0,57,0.00,,SKC,0.00,VWS V14.00,2013-05-17 15:12:00,
2013-05-17 11:17:00,77.7,61.3,29.03,NNE,30,0.0,0.0,57,0.00,,SKC,0.00,VWS V14.00,2013-05-17 15:17:00,
2013-05-17 11:22:00,78.1,60.6,29.06,NNE,30,0.0,0.0,55,0.00,,SKC,0.00,VWS V14.00,2013-05-17 15:22:00,
2013-05-17 11:27:00,78.1,60.1,29.06,NE,40,0.0,4.0,54,0.00,,SKC,0.00,VWS V14.00,2013-05-17 15:27:00,
2013-05-17 11:32:00,78.1,60.6,29.06,NE,40,0.0,0.0,55,0.00,,SKC,0.00,VWS V14.00,2013-05-17 15:32:00,
2013-05-17 11:37:00,78.4,61.0,29.03,NE,39,0.0,0.0,55,0.00,,SKC,0.00,VWS V14.00,2013-05-17 15:37:00,
2013-05-17 11:42:00,78.6,61.1,29.03,NE,39,0.0,0.0,55,0.00,,SKC,0.00,VWS V14.00,2013-05-17 15:42:00,
2013-05-17 11:47:00,78.8,59.7,29.03,NE,38,0.0,0.0,52,0.00,,SKC,0.00,VWS V14.00,2013-05-17 15:47:00,
2013-05-17 11:52:00,78.6,59.5,29.03,North,350,0.0,0.0,52,0.00,,SKC,0.00,VWS V14.00,2013-05-17 15:52:00,
2013-05-17 11:57:00,78.8,59.7,29.03,SSE,163,0.0,0.0,52,0.00,,SKC,0.00,VWS V14.00,2013-05-17 15:57:00,
2013-05-17 12:02:00,79.0,59.3,29.03,SSE,151,0.0,0.0,51,0.00,,SKC,0.00,VWS V14.00,2013-05-17 16:02:00,
2013-05-17 12:08:00,79.3,60.2,29.03,South,185,0.0,0.0,52,0.00,,SKC,0.00,VWS V14.00,2013-05-17 16:08:00,
2013-05-17 12:13:00,79.5,59.8,29.03,South,185,0.0,0.0,51,0.00,,SKC,0.00,VWS V14.00,2013-05-17 16:13:00,
2013-05-17 12:18:00,79.9,59.6,29.03,SSW,202,0.0,0.0,50,0.00,,SKC,0.00,VWS V14.00,2013-05-17 16:18:00,
2013-05-17 12:23:00,80.4,60.1,29.03,SSE,161,0.0,0.0,50,0.00,,SKC,0.00,VWS V14.00,2013-05-17 16:23:00,
2013-05-17 12:28:00,80.8,59.9,29.03,SSW,198,0.0,0.0,49,0.00,,SKC,0.00,VWS V14.00,2013-05-17 16:28:00,
2013-05-17 12:33:00,80.8,58.7,29.03,NE,47,0.0,0.0,47,0.00,,SKC,0.00,VWS V14.00,2013-05-17 16:33:00,
2013-05-17 12:38:00,81.1,59.0,29.03,SW,225,0.0,0.0,47,0.00,,SKC,0.00,VWS V14.00,2013-05-17 16:38:00,
2013-05-17 12:43:00,81.5,59.3,29.03,SSW,208,0.0,0.0,47,0.00,,SKC,0.00,VWS V14.00,2013-05-17 16:43:00,
2013-05-17 12:48:00,81.9,59.7,29.03,SW,222,0.0,0.0,47,0.00,,SKC,0.00,VWS V14.00,2013-05-17 16:48:00,
2013-05-17 12:53:00,81.9,59.1,29.03,South,181,0.0,0.0,46,0.00,,SKC,0.00,VWS V14.00,2013-05-17 16:53:00,
2013-05-17 12:58:00,82.4,59.0,29.03,SSE,160,0.0,3.1,45,0.00,,SKC,0.00,VWS V14.00,2013-05-17 16:58:00,
2013-05-17 13:03:00,82.6,59.1,29.03,SSE,159,0.0,0.0,45,0.00,,SKC,0.00,VWS V14.00,2013-05-17 17:03:00,
2013-05-17 13:08:00,82.2,58.2,29.03,NNE,31,0.0,0.0,44,0.00,,SKC,0.00,VWS V14.00,2013-05-17 17:08:00,
2013-05-17 13:13:00,81.7,57.7,29.03,SW,224,0.0,3.6,44,0.00,,SKC,0.00,VWS V14.00,2013-05-17 17:13:00,
2013-05-17 13:18:00,80.8,56.9,29.03,SW,236,0.0,3.6,44,0.00,,SKC,0.00,VWS V14.00,2013-05-17 17:18:00,
2013-05-17 13:23:00,80.2,56.4,29.03,SW,236,0.0,0.0,44,0.00,,SKC,0.00,VWS V14.00,2013-05-17 17:23:00,
2013-05-17 13:28:00,80.2,57.0,29.03,SW,236,0.0,0.0,45,0.00,,SKC,0.00,VWS V14.00,2013-05-17 17:28:00,
2013-05-17 13:33:00,80.2,56.4,29.03,SW,236,0.0,0.0,44,0.00,,SKC,0.00,VWS V14.00,2013-05-17 17:33:00,
2013-05-17 13:38:00,80.6,56.7,29.03,SW,236,0.0,0.0,44,0.00,,SKC,0.00,VWS V14.00,2013-05-17 17:38:00,
2013-05-17 13:43:00,81.3,57.3,29.03,SW,236,0.0,0.0,44,0.00,,SKC,0.00,VWS V14.00,2013-05-17 17:43:00,
2013-05-17 13:48:00,81.9,57.8,29.03,SSW,199,0.0,0.0,44,0.00,,SKC,0.00,VWS V14.00,2013-05-17 17:48:00,
2013-05-17 13:53:00,82.4,57.7,29.03,SSE,164,0.0,3.6,43,0.00,,SKC,0.00,VWS V14.00,2013-05-17 17:53:00,
2013-05-17 13:58:00,82.6,57.8,29.03,NNE,21,0.0,3.6,43,0.00,,SKC,0.00,VWS V14.00,2013-05-17 17:58:00,
2013-05-17 14:03:00,82.4,57.7,29.03,NNW,328,0.0,0.0,43,0.00,,SKC,0.00,VWS V14.00,2013-05-17 18:03:00,
2013-05-17 14:08:00,82.9,57.5,29.03,NNW,328,0.0,0.0,42,0.00,,SKC,0.00,VWS V14.00,2013-05-17 18:08:00,
2013-05-17 14:13:00,83.3,57.8,29.03,SSE,151,0.0,0.0,42,0.00,,SKC,0.00,VWS V14.00,2013-05-17 18:13:00,
2013-05-17 14:18:00,84.2,58.6,29.00,West,278,0.0,0.0,42,0.00,,SKC,0.00,VWS V14.00,2013-05-17 18:18:00,
2013-05-17 14:23:00,84.9,59.3,29.00,SW,225,0.0,2.2,42,0.00,,SKC,0.00,VWS V14.00,2013-05-17 18:23:00,
2013-05-17 14:28:00,84.9,58.6,29.00,SE,142,0.0,4.0,41,0.00,,SKC,0.00,VWS V14.00,2013-05-17 18:28:00,
2013-05-17 14:33:00,84.2,57.3,29.00,SE,128,0.0,0.0,40,0.00,,SKC,0.00,VWS V14.00,2013-05-17 18:33:00,
2013-05-17 14:38:00,83.5,57.3,29.00,SSE,158,0.0,0.0,41,0.00,,SKC,0.00,VWS V14.00,2013-05-17 18:38:00,
2013-05-17 14:43:00,83.1,57.0,29.00,SSE,158,0.0,0.0,41,0.00,,SKC,0.00,VWS V14.00,2013-05-17 18:43:00,
2013-05-17 14:48:00,83.3,57.2,29.00,SSW,209,0.0,2.2,41,0.00,,SKC,0.00,VWS V14.00,2013-05-17 18:48:00,
2013-05-17 14:53:00,83.5,57.3,29.00,SE,125,0.0,2.7,41,0.00,,SKC,0.00,VWS V14.00,2013-05-17 18:53:00,
2013-05-17 14:58:00,83.5,57.3,29.00,ESE,102,0.0,2.7,41,0.00,,SKC,0.00,VWS V14.00,2013-05-17 18:58:00,
2013-05-17 15:03:00,83.3,57.8,29.00,SSW,205,0.0,3.1,42,0.00,,SKC,0.00,VWS V14.00,2013-05-17 19:03:00,
2013-05-17 15:08:00,83.1,57.7,29.00,WNW,284,0.0,3.1,42,0.00,,SKC,0.00,VWS V14.00,2013-05-17 19:08:00,
2013-05-17 15:13:00,82.8,56.7,29.00,SSE,167,0.0,0.0,41,0.00,,SKC,0.00,VWS V14.00,2013-05-17 19:13:00,
2013-05-17 15:18:00,82.9,57.5,29.00,SSE,150,0.0,0.0,42,0.00,,SKC,0.00,VWS V14.00,2013-05-17 19:18:00,
2013-05-17 15:23:00,82.8,57.3,29.00,West,261,0.0,3.1,42,0.00,,SKC,0.00,VWS V14.00,2013-05-17 19:23:00,
2013-05-17 15:28:00,82.6,57.2,29.00,South,189,0.0,3.1,42,0.00,,SKC,0.00,VWS V14.00,2013-05-17 19:28:00,
2013-05-17 15:33:00,82.6,57.2,29.00,SSE,156,0.0,0.0,42,0.00,,SKC,0.00,VWS V14.00,2013-05-17 19:33:00,
2013-05-17 15:38:00,82.6,57.2,29.00,SSE,156,0.0,0.0,42,0.00,,SKC,0.00,VWS V14.00,2013-05-17 19:38:00,
2013-05-17 15:43:00,82.8,57.3,29.00,West,267,0.0,0.0,42,0.00,,SKC,0.00,VWS V14.00,2013-05-17 19:43:00,
2013-05-17 15:48:00,82.6,57.2,29.00,South,177,0.0,0.0,42,0.00,,SKC,0.00,VWS V14.00,2013-05-17 19:48:00,
2013-05-17 15:53:00,82.6,57.2,29.00,South,171,0.0,0.0,42,0.00,,SKC,0.00,VWS V14.00,2013-05-17 19:53:00,
2013-05-17 15:58:00,82.8,58.0,29.00,SW,224,0.0,0.0,43,0.00,,SKC,0.00,VWS V14.00,2013-05-17 19:58:00,
2013-05-17 16:03:00,82.9,58.2,28.97,SW,221,0.0,0.0,43,0.00,,SKC,0.00,VWS V14.00,2013-05-17 20:03:00,
2013-05-17 16:08:00,83.5,58.7,28.97,SW,221,0.0,0.0,43,0.00,,SKC,0.00,VWS V14.00,2013-05-17 20:08:00,
2013-05-17 16:13:00,83.3,57.2,28.97,NE,34,3.2,4.0,41,0.00,,SKC,0.00,VWS V14.00,2013-05-17 20:13:00,
2013-05-17 16:18:00,83.1,57.0,28.97,SW,222,0.0,4.0,41,0.00,,SKC,0.00,VWS V14.00,2013-05-17 20:18:00,
2013-05-17 16:23:00,83.7,57.5,28.97,SW,225,0.0,4.0,41,0.00,,SKC,0.00,VWS V14.00,2013-05-17 20:23:00,
2013-05-17 16:28:00,84.2,57.3,28.97,SW,216,7.5,7.5,40,0.00,,SKC,0.00,VWS V14.00,2013-05-17 20:28:00,
2013-05-17 16:33:00,84.0,57.8,28.97,SSW,209,4.8,4.8,41,0.00,,SKC,0.00,VWS V14.00,2013-05-17 20:33:00,
2013-05-17 16:38:00,84.0,57.8,28.97,SSW,205,0.0,4.0,41,0.00,,SKC,0.00,VWS V14.00,2013-05-17 20:38:00,
2013-05-17 16:43:00,84.0,57.8,28.97,South,187,0.0,4.0,41,0.00,,SKC,0.00,VWS V14.00,2013-05-17 20:43:00,
2013-05-17 16:48:00,83.8,57.0,28.97,SW,227,0.0,4.0,40,0.00,,SKC,0.00,VWS V14.00,2013-05-17 20:48:00,
2013-05-17 16:53:00,83.5,57.3,28.97,NNE,20,0.0,0.0,41,0.00,,SKC,0.00,VWS V14.00,2013-05-17 20:53:00,
2013-05-17 16:58:00,82.9,56.2,28.97,NNE,28,0.0,3.1,40,0.00,,SKC,0.00,VWS V14.00,2013-05-17 20:58:00,
2013-05-17 17:03:00,82.2,56.2,28.97,NNE,29,0.0,0.0,41,0.00,,SKC,0.00,VWS V14.00,2013-05-17 21:03:00,
2013-05-17 17:08:00,81.7,55.7,28.97,NNE,27,0.0,0.0,41,0.00,,SKC,0.00,VWS V14.00,2013-05-17 21:08:00,
2013-05-17 17:13:00,81.1,55.9,28.97,NNE,27,0.0,0.0,42,0.00,,SKC,0.00,VWS V14.00,2013-05-17 21:13:00,
2013-05-17 17:18:00,80.8,55.6,28.97,NE,50,0.0,0.0,42,0.00,,SKC,0.00,VWS V14.00,2013-05-17 21:18:00,
2013-05-17 17:23:00,80.8,55.6,28.97,SE,129,0.0,0.0,42,0.00,,SKC,0.00,VWS V14.00,2013-05-17 21:23:00,
2013-05-17 17:28:00,80.8,55.6,28.97,NNE,24,0.0,3.6,42,0.00,,SKC,0.00,VWS V14.00,2013-05-17 21:28:00,
2013-05-17 17:33:00,80.6,56.1,28.97,NE,38,3.8,3.8,43,0.00,,SKC,0.00,VWS V14.00,2013-05-17 21:33:00,
2013-05-17 17:38:00,80.4,55.9,28.97,NE,37,0.0,3.6,43,0.00,,SKC,0.00,VWS V14.00,2013-05-17 21:38:00,
2013-05-17 17:43:00,80.2,56.4,28.97,NE,35,0.0,0.0,44,0.00,,SKC,0.00,VWS V14.00,2013-05-17 21:43:00,
2013-05-17 17:48:00,80.1,55.6,28.97,NE,35,0.0,0.0,43,0.00,,SKC,0.00,VWS V14.00,2013-05-17 21:48:00,
2013-05-17 17:54:00,79.7,55.9,28.97,NE,35,0.0,0.0,44,0.00,,SKC,0.00,VWS V14.00,2013-05-17 21:54:00,
2013-05-17 17:59:00,79.5,55.7,28.97,NE,35,0.0,0.0,44,0.00,,SKC,0.00,VWS V14.00,2013-05-17 21:59:00,
2013-05-17 18:04:00,79.2,55.4,28.97,NE,35,0.0,0.0,44,0.00,,SKC,0.00,VWS V14.00,2013-05-17 22:04:00,
2013-05-17 18:09:00,79.2,55.4,28.97,NE,38,0.0,3.1,44,0.00,,SKC,0.00,VWS V14.00,2013-05-17 22:09:00,
2013-05-17 18:14:00,79.0,55.8,28.97,NNE,33,0.0,2.7,45,0.00,,SKC,0.00,VWS V14.00,2013-05-17 22:14:00,
2013-05-17 18:19:00,78.8,55.7,28.97,NE,42,0.0,2.7,45,0.00,,SKC,0.00,VWS V14.00,2013-05-17 22:19:00,
2013-05-17 18:24:00,78.8,55.7,28.97,NNE,27,3.8,3.8,45,0.00,,SKC,0.00,VWS V14.00,2013-05-17 22:24:00,
2013-05-17 18:29:00,78.8,55.7,28.97,NNE,24,3.2,4.0,45,0.00,,SKC,0.00,VWS V14.00,2013-05-17 22:29:00,
2013-05-17 18:34:00,79.0,55.8,28.97,NE,55,0.0,3.1,45,0.00,,SKC,0.00,VWS V14.00,2013-05-17 22:34:00,
2013-05-17 18:39:00,79.2,56.0,28.97,ESE,115,0.0,3.1,45,0.00,,SKC,0.00,VWS V14.00,2013-05-17 22:39:00,
2013-05-17 18:44:00,79.3,56.2,28.97,NNE,23,0.0,0.0,45,0.00,,SKC,0.00,VWS V14.00,2013-05-17 22:44:00,
2013-05-17 18:49:00,79.3,56.2,28.94,NNE,28,0.0,0.0,45,0.00,,SKC,0.00,VWS V14.00,2013-05-17 22:49:00,
2013-05-17 18:54:00,79.0,55.8,28.94,ESE,107,0.0,0.0,45,0.00,,SKC,0.00,VWS V14.00,2013-05-17 22:54:00,
2013-05-17 18:59:00,78.8,55.7,28.94,NNE,28,0.0,0.0,45,0.00,,SKC,0.00,VWS V14.00,2013-05-17 22:59:00,
2013-05-17 19:04:00,78.4,55.4,28.94,NNE,32,0.0,0.0,45,0.00,,SKC,0.00,VWS V14.00,2013-05-17 23:04:00,
2013-05-17 19:09:00,78.1,55.6,28.94,NNE,32,0.0,0.0,46,0.00,,SKC,0.00,VWS V14.00,2013-05-17 23:09:00,
2013-05-17 19:14:00,77.7,55.3,28.94,NNE,32,0.0,0.0,46,0.00,,SKC,0.00,VWS V14.00,2013-05-17 23:14:00,
2013-05-17 19:19:00,77.5,55.2,28.94,NNE,32,0.0,0.0,46,0.00,,SKC,0.00,VWS V14.00,2013-05-17 23:19:00,
2013-05-17 19:24:00,77.4,55.0,28.94,NNE,32,0.0,0.0,46,0.00,,SKC,0.00,VWS V14.00,2013-05-17 23:24:00,
2013-05-17 19:29:00,77.2,54.8,28.94,NNE,32,0.0,0.0,46,0.00,,SKC,0.00,VWS V14.00,2013-05-17 23:29:00,
2013-05-17 19:34:00,76.8,55.1,28.97,NNE,32,0.0,0.0,47,0.00,,SKC,0.00,VWS V14.00,2013-05-17 23:34:00,
2013-05-17 19:39:00,76.5,55.3,28.97,NNE,32,0.0,0.0,48,0.00,,SKC,0.00,VWS V14.00,2013-05-17 23:39:00,
2013-05-17 19:44:00,76.3,55.2,28.97,NE,38,0.0,0.0,48,0.00,,SKC,0.00,VWS V14.00,2013-05-17 23:44:00,
2013-05-17 19:49:00,76.3,55.2,28.97,NE,38,0.0,0.0,48,0.00,,SKC,0.00,VWS V14.00,2013-05-17 23:49:00,
2013-05-17 19:54:00,76.1,55.6,28.97,NE,38,0.0,0.0,49,0.00,,SKC,0.00,VWS V14.00,2013-05-17 23:54:00,
2013-05-17 19:59:00,75.9,55.4,28.97,NE,38,0.0,0.0,49,0.00,,SKC,0.00,VWS V14.00,2013-05-17 23:59:00,
2013-05-17 20:04:00,75.9,55.4,28.97,NE,38,0.0,0.0,49,0.00,,SKC,0.00,VWS V14.00,2013-05-18 00:04:00,
2013-05-17 20:09:00,75.9,55.4,28.97,NE,38,0.0,0.0,49,0.00,,SKC,0.00,VWS V14.00,2013-05-18 00:09:00,
2013-05-17 20:14:00,75.7,55.8,28.97,NE,38,0.0,0.0,50,0.00,,SKC,0.00,VWS V14.00,2013-05-18 00:14:00,
2013-05-17 20:19:00,75.7,55.8,28.97,NE,38,0.0,0.0,50,0.00,,SKC,0.00,VWS V14.00,2013-05-18 00:19:00,
2013-05-17 20:24:00,75.7,55.8,28.97,NE,38,0.0,0.0,50,0.00,,SKC,0.00,VWS V14.00,2013-05-18 00:24:00,
2013-05-17 20:29:00,75.6,55.6,28.97,NE,38,0.0,0.0,50,0.00,,SKC,0.00,VWS V14.00,2013-05-18 00:29:00,
2013-05-17 20:34:00,75.6,56.2,28.97,NE,38,0.0,0.0,51,0.00,,SKC,0.00,VWS V14.00,2013-05-18 00:34:00,
2013-05-17 20:39:00,75.2,55.8,28.97,NE,38,0.0,0.0,51,0.00,,SKC,0.00,VWS V14.00,2013-05-18 00:39:00,
2013-05-17 20:44:00,75.0,56.2,28.97,NE,38,0.0,0.0,52,0.00,,SKC,0.00,VWS V14.00,2013-05-18 00:44:00,
2013-05-17 20:49:00,75.0,56.2,28.97,NE,38,0.0,0.0,52,0.00,,SKC,0.00,VWS V14.00,2013-05-18 00:49:00,
2013-05-17 20:54:00,74.7,56.4,28.97,NE,38,0.0,0.0,53,0.00,,SKC,0.00,VWS V14.00,2013-05-18 00:54:00,
2013-05-17 20:59:00,74.5,56.2,28.97,NE,38,0.0,0.0,53,0.00,,SKC,0.00,VWS V14.00,2013-05-18 00:59:00,
2013-05-17 21:04:00,74.5,56.2,28.97,NE,38,0.0,0.0,53,0.00,,SKC,0.00,VWS V14.00,2013-05-18 01:04:00,
2013-05-17 21:09:00,74.3,56.6,28.97,NE,38,0.0,0.0,54,0.00,,SKC,0.00,VWS V14.00,2013-05-18 01:09:00,
2013-05-17 21:14:00,74.1,56.4,28.97,NE,38,0.0,0.0,54,0.00,,SKC,0.00,VWS V14.00,2013-05-18 01:14:00,
2013-05-17 21:19:00,74.1,56.4,28.97,NE,38,0.0,0.0,54,0.00,,SKC,0.00,VWS V14.00,2013-05-18 01:19:00,
2013-05-17 21:24:00,73.8,56.6,28.97,NE,38,0.0,0.0,55,0.00,,SKC,0.00,VWS V14.00,2013-05-18 01:24:00,
2013-05-17 21:29:00,73.4,56.8,28.97,NE,38,0.0,0.0,56,0.00,,SKC,0.00,VWS V14.00,2013-05-18 01:29:00,
2013-05-17 21:34:00,73.0,56.9,28.97,NE,38,0.0,0.0,57,0.00,,SKC,0.00,VWS V14.00,2013-05-18 01:34:00,
2013-05-17 21:39:00,72.7,57.1,28.97,NE,42,0.0,0.0,58,0.00,,SKC,0.00,VWS V14.00,2013-05-18 01:39:00,
2013-05-17 21:44:00,72.5,57.4,28.97,NE,42,0.0,0.0,59,0.00,,SKC,0.00,VWS V14.00,2013-05-18 01:44:00,
2013-05-17 21:49:00,72.3,57.2,29.00,NE,42,0.0,0.0,59,0.00,,SKC,0.00,VWS V14.00,2013-05-18 01:49:00,
2013-05-17 21:54:00,72.3,57.2,29.00,NE,42,0.0,0.0,59,0.00,,SKC,0.00,VWS V14.00,2013-05-18 01:54:00,
2013-05-17 21:59:00,72.3,57.7,29.00,NE,42,0.0,0.0,60,0.00,,SKC,0.00,VWS V14.00,2013-05-18 01:59:00,
2013-05-17 22:04:00,72.1,57.5,29.00,NE,42,0.0,0.0,60,0.00,,SKC,0.00,VWS V14.00,2013-05-18 02:04:00,
2013-05-17 22:09:00,72.1,57.5,29.00,NE,42,0.0,0.0,60,0.00,,SKC,0.00,VWS V14.00,2013-05-18 02:09:00,
2013-05-17 22:14:00,72.1,57.5,29.00,NE,42,0.0,0.0,60,0.00,,SKC,0.00,VWS V14.00,2013-05-18 02:14:00,
2013-05-17 22:19:00,72.1,57.5,29.00,NE,42,0.0,0.0,60,0.00,,SKC,0.00,VWS V14.00,2013-05-18 02:19:00,
2013-05-17 22:24:00,72.1,57.5,29.00,NE,42,0.0,0.0,60,0.00,,SKC,0.00,VWS V14.00,2013-05-18 02:24:00,
2013-05-17 22:29:00,72.0,57.3,29.00,NE,42,0.0,0.0,60,0.00,,SKC,0.00,VWS V14.00,2013-05-18 02:29:00,
2013-05-17 22:34:00,72.0,57.8,29.00,NE,42,0.0,0.0,61,0.00,,SKC,0.00,VWS V14.00,2013-05-18 02:34:00,
2013-05-17 22:39:00,71.8,57.6,29.00,NE,42,0.0,0.0,61,0.00,,SKC,0.00,VWS V14.00,2013-05-18 02:39:00,
2013-05-17 22:44:00,71.6,57.5,29.00,NE,42,0.0,0.0,61,0.00,,SKC,0.00,VWS V14.00,2013-05-18 02:44:00,
2013-05-17 22:49:00,71.4,57.3,29.00,NE,42,0.0,0.0,61,0.00,,SKC,0.00,VWS V14.00,2013-05-18 02:49:00,
2013-05-17 22:54:00,71.2,57.6,29.00,NE,42,0.0,0.0,62,0.00,,SKC,0.00,VWS V14.00,2013-05-18 02:54:00,
2013-05-17 22:59:00,71.1,57.4,29.00,NE,42,0.0,0.0,62,0.00,,SKC,0.00,VWS V14.00,2013-05-18 02:59:00,
2013-05-17 23:04:00,70.9,57.2,29.00,NE,42,0.0,0.0,62,0.00,,SKC,0.00,VWS V14.00,2013-05-18 03:04:00,
2013-05-17 23:09:00,70.5,56.9,29.00,NE,42,0.0,0.0,62,0.00,,SKC,0.00,VWS V14.00,2013-05-18 03:09:00,
2013-05-17 23:14:00,70.3,57.2,29.00,NE,42,0.0,0.0,63,0.00,,SKC,0.00,VWS V14.00,2013-05-18 03:14:00,
2013-05-17 23:19:00,70.3,57.2,29.00,NE,42,0.0,0.0,63,0.00,,SKC,0.00,VWS V14.00,2013-05-18 03:19:00,
2013-05-17 23:24:00,70.2,57.0,29.00,NE,42,0.0,0.0,63,0.00,,SKC,0.00,VWS V14.00,2013-05-18 03:24:00,
2013-05-17 23:29:00,69.8,56.7,29.00,NE,42,0.0,0.0,63,0.00,,SKC,0.00,VWS V14.00,2013-05-18 03:29:00,
2013-05-17 23:34:00,69.8,57.1,29.00,NE,42,0.0,0.0,64,0.00,,SKC,0.00,VWS V14.00,2013-05-18 03:34:00,
2013-05-17 23:39:00,69.6,57.3,29.00,NE,42,0.0,0.0,65,0.00,,SKC,0.00,VWS V14.00,2013-05-18 03:39:00,
2013-05-17 23:45:00,69.6,57.3,29.00,NE,42,0.0,0.0,65,0.00,,SKC,0.00,VWS V14.00,2013-05-18 03:45:00,
2013-05-17 23:50:00,69.4,57.2,29.00,NE,42,0.0,0.0,65,0.00,,SKC,0.00,VWS V14.00,2013-05-18 03:50:00,
2013-05-17 23:55:00,69.4,57.6,29.00,NE,42,0.0,0.0,66,0.00,,SKC,0.00,VWS V14.00,2013-05-18 03:55:00,